This is the latest recevied weather packets stored in our database for station/object KJ6BBX. If no packets are shown the sender has not sent any weather packets the latest 10 day(s).
| Time | Temp. | Humidity | Pressure | Rain* | Wind** | Luminosity | Snow |
|---|---|---|---|---|---|---|---|
| 1777885515 | 13.33° C | 86% | 1006.9 hPa | 0 mm | - | 0 W/m² | - |
| 1777884614 | 13.33° C | 85% | 1006.8 hPa | 0 mm | - | 0 W/m² | - |
| 1777883714 | 13.33° C | 85% | 1007.2 hPa | 0 mm | - | 0 W/m² | - |
| 1777882814 | 13.33° C | 84% | 1007.4 hPa | 0 mm | - | 0 W/m² | - |
| 1777881914 | 13.33° C | 84% | 1007.2 hPa | 0 mm | - | 0 W/m² | - |
| 1777881014 | 13.33° C | 84% | 1007.6 hPa | 0 mm | - | 0 W/m² | - |
| 1777880114 | 13.33° C | 84% | 1007.8 hPa | 0 mm | - | 0 W/m² | - |
| 1777879214 | 12.78° C | 84% | 1007.8 hPa | 0 mm | - | 0 W/m² | - |
| 1777878314 | 12.78° C | 84% | 1007.4 hPa | 0 mm | - | 0 W/m² | - |
| 1777877414 | 12.22° C | 85% | 1007.2 hPa | 0.25 mm | - | 0 W/m² | - |
| 1777876514 | 12.22° C | 85% | 1006.8 hPa | 0.25 mm | - | 0 W/m² | - |
| 1777875615 | 11.67° C | 84% | 1007.3 hPa | 0.25 mm | - | 0 W/m² | - |
| 1777874714 | 12.22° C | 83% | 1006.8 hPa | 0.25 mm | - | 0 W/m² | - |
| 1777873814 | 12.78° C | 83% | 1006.8 hPa | 0.25 mm | - | 0 W/m² | - |
| 1777872914 | 12.78° C | 82% | 1006.5 hPa | 0.25 mm | - | 0 W/m² | - |
| 1777872014 | 13.33° C | 81% | 1006.7 hPa | 0.25 mm | - | 0 W/m² | - |
| 1777871114 | 13.89° C | 80% | 1007 hPa | 0.25 mm | - | 0 W/m² | - |
| 1777870214 | 14.44° C | 79% | 1006.9 hPa | 0.25 mm | - | 0 W/m² | - |
| 1777869314 | 14.44° C | 78% | 1006.9 hPa | 0.25 mm | - | 0 W/m² | - |
| 1777868414 | 14.44° C | 78% | 1006.9 hPa | 0.25 mm | - | 0 W/m² | - |
| 1777867514 | 15° C | 77% | 1006.6 hPa | 0.25 mm | - | 0 W/m² | - |
| 1777866614 | 15° C | 76% | 1006.4 hPa | 0.25 mm | - | 0 W/m² | - |
| 1777865714 | 15° C | 75% | 1006.4 hPa | 0.25 mm | - | 0 W/m² | - |
| 1777864814 | 15° C | 74% | 1006 hPa | 0.25 mm | - | 0 W/m² | - |
| 1777863914 | 15° C | 75% | 1005.8 hPa | 0.25 mm | - | 0 W/m² | - |
* Rain since midnight (hover to see other rain measurements)
** Current wind speed in m/s (hover to see current wind gust speed)